カタログに戻る

USA 485

運用中軍事VLEO
NORAD 62756·PAYLOAD·🇺🇸 United States

打ち上げ Jan 21, 2025 から Cape Canaveral Space Force Station

Loading…

次のパス (今後24時間)

TLE

最新Source: Space-Track

元期: Sep 14, 2026, 13:08 UTC

1 62756U 25014X   26257.54737820  .00198233  00000-0  11219-2 0  9998
2 62756  42.9998 287.5930 0001414 283.4980  76.5732 15.77731379 94875

AllMySatでUSA 485をリアルタイム追跡

Download on the App Store